Volver al catálogo

STARLINK-5045

ActivoComunicacionesVLEO
NORAD 53900·PAYLOAD·🇺🇸 United States

Lanzado Sep 24, 2022 desde Cape Canaveral Space Force Station

Loading…

Próximos Pases (próximas 24 horas)

TLE

ActualizadoSource: CelesTrak SupGP

Época: Sep 14, 2026, 22:18 UTC

1 53900C 22119Q   26257.92965278  .00387020  00000+0  11608-1 0  2575
2 53900  53.1595 189.5351 0001504  93.2334  14.5317 15.33723390    11

Sigue STARLINK-5045 en tiempo real con AllMySat

Download on the App Store